Voltar ao catálogo

SL-6 R/B(2)

AtivoHEO
NORAD 32705·ROCKET BODY·🇷🇺 Russia

Lançado Sep 22, 1977 de Baikonur Cosmodrome

Loading…

Próximas Passagens (próximas 24 horas)

TLE

AtualizadoSource: Space-Track

Época: Sep 8, 2026, 18:36 UTC

1 32705U 77093E   26251.77549295  .00000620  00000-0  00000+0 0  9994
2 32705  51.7912 126.7680 6863410 278.9204  15.0270  0.25808650 12039

Acompanhe SL-6 R/B(2) em tempo real com AllMySat

Download on the App Store